sat.trackr.live / text

‹ back to catalog

STARLINK-3301

NORAD 50169 · 2021-125P

PAYLOAD ACTIVE UNKNOWN

§ Identity

Operator
Country
US
Launch date
2021-12-18
Launch site
AFWTR
Launch vehicle
Mass (kg)
RCS (m²)

Purposes: comms

External: N2YO · Heavens-Above · Gunter

§ Orbital elements

Epoch: 2026-09-20T02:50:44.376288Z

Period
93.85 min
Inclination
53.1607°
Eccentricity
0.0001096
Mean motion
15.34390022 rev/d
Perigee alt
462.0 km
Apogee alt
463.5 km
Semi-major
6,840.9 km
B*
4.6757e-5
RAAN
79.7493°
Arg perigee
93.1493°
Mean anomaly
266.9635°
Rev number
26,618

§ Raw data

STARLINK-33011 50169U 21125P   26263.11856917  .00001203  00000+0  46757-4 0  99972 50169  53.1607  79.7493 0001096  93.1493 266.9635 15.34390022266188

JSON: /api/v1/satellites/50169 · /tle

For live sub-satellite position, see the globe view (requires WebGL).

§ Visibility from observer

Set your observer location to see the next 7 days of passes ≥ 10°. The values pass through the URL so the page stays shareable.

No JS? Fill the form by hand. The geolocation button needs JavaScript.